TimeEET,TemperatureF,Dew PointF,Humidity,Sea Level PressureIn,VisibilityMPH,Wind Direction,Wind SpeedMPH,Gust SpeedMPH,PrecipitationIn,Events,Conditions,WindDirDegrees,DateUTC
12:20 AM,64.4,42.8,45,30.04,6.2,NW,9.2,-,N/A,,Partly Cloudy,320,2012-11-11 22:20:00
12:50 AM,64.4,42.8,45,30.04,6.2,North,6.9,-,N/A,,Partly Cloudy,350,2012-11-11 22:50:00
1:20 AM,64.4,42.8,45,30.04,6.2,North,6.9,-,N/A,,Partly Cloudy,350,2012-11-11 23:20:00
1:50 AM,64.4,44.6,49,30.04,6.2,NNW,11.5,-,N/A,,Partly Cloudy,330,2012-11-11 23:50:00
2:00 AM,64,44,38,30.06,6,NNW,11.5,,,,Scattered Clouds,330,2012-11-12 00:00:00
2:20 AM,64.4,44.6,49,30.04,6.2,NNW,12.7,-,N/A,,Partly Cloudy,330,2012-11-12 00:20:00
2:50 AM,64.4,44.6,49,30.04,6.2,NW,11.5,-,N/A,,Partly Cloudy,320,2012-11-12 00:50:00
3:20 AM,64.4,44.6,49,30.04,6.2,NW,11.5,-,N/A,,Partly Cloudy,320,2012-11-12 01:20:00
3:50 AM,64.4,44.6,49,30.04,6.2,NW,11.5,-,N/A,,Partly Cloudy,310,2012-11-12 01:50:00
4:20 AM,64.4,44.6,49,30.04,6.2,NW,11.5,-,N/A,,Partly Cloudy,310,2012-11-12 02:20:00
4:50 AM,64.4,44.6,49,30.04,6.2,NW,8.1,-,N/A,,Partly Cloudy,310,2012-11-12 02:50:00
5:20 AM,64.4,44.6,49,30.04,6.2,NW,8.1,-,N/A,,Partly Cloudy,310,2012-11-12 03:20:00
5:50 AM,62.6,46.4,55,30.04,6.2,NW,6.9,-,N/A,,Partly Cloudy,320,2012-11-12 03:50:00
6:20 AM,62.6,48.2,59,30.04,-9999.0,NW,8.1,-,N/A,,Clear,320,2012-11-12 04:20:00
6:50 AM,62.6,48.2,59,30.04,-9999.0,NW,8.1,-,N/A,,Clear,320,2012-11-12 04:50:00
7:20 AM,62.6,48.2,59,30.04,-9999.0,NW,9.2,-,N/A,,Clear,310,2012-11-12 05:20:00
7:50 AM,64.4,51.8,64,30.06,-9999.0,WNW,6.9,-,N/A,,Clear,300,2012-11-12 05:50:00
8:00 AM,64,51,53,30.07,6,WNW,6.9,,,,Clear,300,2012-11-12 06:00:00
8:20 AM,66.2,50.0,56,30.06,-9999.0,NW,8.1,-,N/A,,Clear,310,2012-11-12 06:20:00
8:50 AM,66.2,48.2,52,30.06,-9999.0,WNW,6.9,-,N/A,,Clear,300,2012-11-12 06:50:00
9:20 AM,66.2,48.2,52,30.06,-9999.0,West,6.9,-,N/A,,Clear,270,2012-11-12 07:20:00
9:50 AM,68.0,48.2,49,30.06,-9999.0,WNW,8.1,-,N/A,,Clear,290,2012-11-12 07:50:00
10:20 AM,68.0,48.2,49,30.06,-9999.0,WNW,5.8,-,N/A,,Clear,300,2012-11-12 08:20:00
10:50 AM,68.0,50.0,52,30.06,-9999.0,WNW,5.8,-,N/A,,Clear,300,2012-11-12 08:50:00
11:20 AM,68.0,50.0,52,30.06,-9999.0,WNW,6.9,-,N/A,,Clear,290,2012-11-12 09:20:00
11:50 AM,69.8,48.2,46,30.06,-9999.0,WNW,8.1,-,N/A,,Clear,290,2012-11-12 09:50:00
12:20 PM,69.8,48.2,46,30.06,-9999.0,West,10.4,-,N/A,,Clear,280,2012-11-12 10:20:00
12:50 PM,71.6,48.2,43,30.04,-9999.0,West,11.5,-,N/A,,Clear,270,2012-11-12 10:50:00
1:20 PM,71.6,48.2,43,30.04,-9999.0,WSW,13.8,-,N/A,,Clear,240,2012-11-12 11:20:00
1:50 PM,71.6,51.8,50,30.04,-9999.0,WSW,12.7,-,N/A,,Clear,240,2012-11-12 11:50:00
2:00 PM,72,52,38,30.05,6,WSW,12.7,,,,Clear,240,2012-11-12 12:00:00
2:20 PM,71.6,51.8,50,30.04,-9999.0,WSW,12.7,-,N/A,,Clear,240,2012-11-12 12:20:00
2:50 PM,69.8,51.8,53,30.04,6.2,WSW,12.7,-,N/A,,Partly Cloudy,240,2012-11-12 12:50:00
3:20 PM,69.8,51.8,53,30.04,6.2,WSW,15.0,-,N/A,,Partly Cloudy,240,2012-11-12 13:20:00
3:50 PM,69.8,53.6,56,30.04,6.2,WSW,10.4,-,N/A,,Partly Cloudy,250,2012-11-12 13:50:00
4:20 PM,69.8,53.6,56,30.04,6.2,WSW,8.1,-,N/A,,Partly Cloudy,250,2012-11-12 14:20:00
4:50 PM,68.0,53.6,60,30.04,6.2,WSW,6.9,-,N/A,,Scattered Clouds,240,2012-11-12 14:50:00
5:20 PM,66.2,53.6,64,30.04,6.2,SW,5.8,-,N/A,,Scattered Clouds,230,2012-11-12 15:20:00
5:50 PM,64.4,55.4,73,30.04,6.2,SW,4.6,-,N/A,,Scattered Clouds,220,2012-11-12 15:50:00
6:20 PM,64.4,55.4,73,30.04,6.2,SW,3.5,-,N/A,,Scattered Clouds,220,2012-11-12 16:20:00
6:50 PM,62.6,53.6,72,30.04,6.2,Variable,2.3,-,N/A,,Scattered Clouds,0,2012-11-12 16:50:00
7:20 PM,62.6,53.6,72,30.04,6.2,SW,3.5,-,N/A,,Scattered Clouds,220,2012-11-12 17:20:00
7:50 PM,64.4,55.4,73,30.04,6.2,SSW,4.6,-,N/A,,Scattered Clouds,210,2012-11-12 17:50:00
8:00 PM,65,56,65,30.06,6,SSW,4.6,,,,Scattered Clouds,210,2012-11-12 18:00:00
8:20 PM,64.4,55.4,73,30.04,6.2,SW,4.6,-,N/A,,Scattered Clouds,220,2012-11-12 18:20:00
8:50 PM,62.6,55.4,77,30.04,6.2,SW,3.5,-,N/A,,Scattered Clouds,220,2012-11-12 18:50:00
9:20 PM,62.6,55.4,77,30.04,6.2,SSW,1.2,-,N/A,,Scattered Clouds,200,2012-11-12 19:20:00
9:50 PM,62.6,57.2,82,30.06,6.2,Calm,Calm,-,N/A,,Scattered Clouds,0,2012-11-12 19:50:00
10:20 PM,62.6,57.2,82,30.06,6.2,SW,4.6,-,N/A,,Scattered Clouds,220,2012-11-12 20:20:00
10:50 PM,59.0,55.4,88,30.06,6.2,Calm,Calm,-,N/A,,Scattered Clouds,0,2012-11-12 20:50:00
11:20 PM,59.0,55.4,88,30.06,6.2,Variable,2.3,-,N/A,,Scattered Clouds,0,2012-11-12 21:20:00
11:50 PM,59.0,51.8,77,30.06,6.2,Calm,Calm,-,N/A,,Scattered Clouds,0,2012-11-12 21:50:00